Flag for U.S.A. Weather past 2 weeks in Providence, Rhode Island, U.S.A.

Now
44 °F

Light rain. Low clouds.


Feels Like: 40 °F
Forecast: 38 / 47 °F
Wind: 7 mph from North

Location: Green State Airport

Current Time: Mar 27, 2015 at 4:31:31 AM

Latest Report: Mar 27, 2015 at 3:51 AM


Visibility: 10 mi

Pressure: 29.65 "Hg

Humidity: 89%

Dew point: 41 °F

Location of ProvidenceLocation

Historic Weather in Providence — Graph

°F

Providence temperature yesterday

Maximum temperature yesterday: 57 °F (at 5:55 PM)
Minimum temperature yesterday: 40 °F (at 1:51 AM)
Average temperature yesterday: 49 °F

Past Weeks' High & Low Weather Summary

 TemperatureHumidityPressure
High57 °F (Mar 26, 5:55 PM)100% (Mar 14, 2:51 PM)30.64 "Hg (Mar 14, 2:51 PM)
Low17 °F (Mar 23, 5:51 AM)17% (Mar 19, 2:51 PM)29.41 "Hg (Mar 17, 3:51 PM)
Average34 °F55%30.06 "Hg
* Reported Mar 12 2:51 AM — Mar 27 2:51 AM, Providence, Weather by CustomWeather, © 2015

Note: Actual official high and low records may vary slightly from our data, if they occured in-between our weather recording intervals... More about our weather records

Advertising

Providence weather history for previous 24 hours

 ConditionsComfort  
Time TempWeatherWind HumidityBarometerVisibility
2:51 AM
Fri, Mar 27
44 °FLight rain. Fog.10 mph93%29.64 "Hg6 mi
1:51 AM45 °FLight rain. Low clouds.10 mph90%29.63 "Hg9 mi
1:03 AM45 °FOvercast.9 mph93%29.63 "Hg10 mi
12:51 AM45 °FLow clouds.13 mph93%29.62 "Hg10 mi
11:51 PM
Thu, Mar 26
47 °FLight rain. Low clouds.15 mph90%29.64 "Hg10 mi
11:03 PM48 °FLight rain. Fog.20 mph93%29.63 "Hg4 mi
10:51 PM52 °FRain. Fog.13 mph93%29.62 "Hg2 mi
9:51 PM57 °FLow clouds.18 mph93%29.63 "Hg7 mi
9:01 PM57 °FStrong thunderstorms. Fog.12 mph93%29.63 "Hg2 mi
8:51 PM57 °FStrong thunderstorms. Fog.14 mph93%29.63 "Hg4 mi
7:51 PM57 °FRain. Fog.18 mph90%29.64 "Hg4 mi
6:51 PM56 °FLight rain. Fog.13 mph90%29.65 "Hg3 mi
5:55 PM57 °FThunderstorms. Fog.21 mph90%29.67 "Hg3 mi
4:59 PM55 °FFog.20 mph90%29.67 "Hg3 mi
3:59 PM47 °FLight rain. Fog.9 mph93%29.72 "Hg1 mi
2:51 PM49 °FLight rain. Low clouds.8 mph93%29.77 "Hg7 mi
1:51 PM49 °FLight rain. Fog.10 mph93%29.80 "Hg4 mi
12:51 PM49 °FLight rain. Fog.13 mph93%29.85 "Hg2 mi
11:51 AM51 °FLight rain. Overcast.10 mph80%29.90 "Hg10 mi
10:51 AM52 °FPartly sunny.9 mph80%29.93 "Hg10 mi
9:51 AM49 °FMostly cloudy.12 mph86%29.96 "Hg7 mi
8:51 AM46 °FBroken clouds.8 mph93%29.97 "Hg7 mi
7:51 AM43 °FFog.6 mph100%29.98 "Hg2 mi
6:58 AM43 °FFog.9 mph97%30.00 "Hg1 mi
6:51 AM43 °FFog.8 mph97%30.00 "Hg1 mi
5:51 AM43 °FFog.7 mph97%30.01 "Hg2 mi
4:51 AM43 °FFog.No wind97%30.01 "Hg2 mi
Weather by CustomWeather, © 2015

See weather overviewHow to use our weather pages